2016-08-30 00:07:00 r, 20.96m,0000000000Hz,0001305927c,0000002.834s, 022.5C,00002191
2016-08-30 00:17:01 r, 20.97m,0000000000Hz,0001317463c,0000002.859s, 022.5C,00002191
2016-08-30 00:27:00 r, 20.98m,0000000001Hz,0001333010c,0000002.893s, 022.2C,00002191
2016-08-30 00:37:00 r, 21.00m,0000000000Hz,0001345060c,0000002.919s, 022.2C,00002191
2016-08-30 00:47:00 r, 21.00m,0000000000Hz,0001355883c,0000002.942s, 022.2C,00002191
2016-08-30 00:57:00 r, 21.02m,0000000000Hz,0001369661c,0000002.972s, 022.2C,00002191
2016-08-30 01:07:00 r, 21.03m,0000000001Hz,0001387501c,0000003.011s, 021.9C,00002191
2016-08-30 01:17:00 r, 21.04m,0000000000Hz,0001398879c,0000003.036s, 021.9C,00002191
2016-08-30 01:27:01 r, 21.04m,0000000001Hz,0001399326c,0000003.037s, 021.5C,00002191
2016-08-30 01:37:00 r, 21.04m,0000000000Hz,0001406437c,0000003.052s, 021.5C,00002191
2016-08-30 01:47:00 r, 21.05m,0000000000Hz,0001413705c,0000003.068s, 021.5C,00002191
2016-08-30 01:57:00 r, 21.04m,0000000000Hz,0001406724c,0000003.053s, 021.5C,00002191
2016-08-30 02:07:00 r, 21.04m,0000000000Hz,0001395319c,0000003.028s, 021.5C,00002191
2016-08-30 02:17:00 r, 21.02m,0000000000Hz,0001380410c,0000002.996s, 021.5C,00002191
2016-08-30 02:27:00 r, 21.00m,0000000000Hz,0001359567c,0000002.950s, 021.5C,00002191
2016-08-30 02:37:01 r, 20.99m,0000000001Hz,0001336673c,0000002.901s, 021.2C,00002191
2016-08-30 02:47:00 r, 20.95m,0000000000Hz,0001287892c,0000002.795s, 021.2C,00002191
2016-08-30 02:57:00 r, 20.97m,0000000000Hz,0001310968c,0000002.845s, 020.9C,00002191
2016-08-30 03:07:00 r, 20.97m,0000000000Hz,0001319387c,0000002.863s, 020.9C,00002191
2016-08-30 03:17:00 r, 20.96m,0000000000Hz,0001305579c,0000002.833s, 020.9C,00002191
2016-08-30 03:27:00 r, 20.97m,0000000001Hz,0001324803c,0000002.875s, 020.9C,00002191
2016-08-30 03:37:01 r, 20.99m,0000000000Hz,0001351027c,0000002.932s, 020.6C,00002191
2016-08-30 03:47:01 r, 21.01m,0000000000Hz,0001368365c,0000002.970s, 020.6C,00002191
2016-08-30 03:57:00 r, 21.03m,0000000001Hz,0001397508c,0000003.033s, 020.6C,00002191
2016-08-30 04:07:02 r, 21.05m,0000000001Hz,0001410513c,0000003.061s, 020.6C,00002191
2016-08-30 04:17:00 r, 21.05m,0000000000Hz,0001409066c,0000003.058s, 020.6C,00002191
2016-08-30 04:27:00 r, 21.04m,0000000000Hz,0001408879c,0000003.057s, 020.6C,00002191
2016-08-30 04:37:01 r, 21.03m,0000000000Hz,0001392939c,0000003.023s, 020.6C,00002191
2016-08-30 04:47:01 r, 21.01m,0000000001Hz,0001370971c,0000002.975s, 020.6C,00002191
2016-08-30 04:57:01 r, 20.97m,0000000001Hz,0001316175c,0000002.856s, 020.6C,00002191
2016-08-30 05:07:00 r, 20.82m,0000000000Hz,0001148645c,0000002.493s, 020.6C,00002191
2016-08-30 05:17:00 r, 20.40m,0000000001Hz,0000784254c,0000001.702s, 020.6C,00002191
2016-08-30 05:27:01 r, 19.57m,0000000001Hz,0000367443c,0000000.797s, 020.6C,00002191
2016-08-30 05:37:00 r, 18.40m,0000000004Hz,0000125760c,0000000.273s, 020.6C,00002191
2016-08-30 05:47:01 r, 17.05m,0000000013Hz,0000036389c,0000000.079s, 020.6C,00002191
2016-08-30 05:57:00 r, 15.42m,0000000056Hz,0000008106c,0000000.018s, 020.3C,00002191
2016-08-30 06:07:00 r, 13.41m,0000000364Hz,0000000000c,0000000.000s, 020.3C,00002191
2016-08-30 06:17:00 r, 11.37m,0000002412Hz,0000000000c,0000000.000s, 019.9C,00002191
2016-08-30 06:27:00 r, 09.53m,0000013032Hz,0000000000c,0000000.000s, 019.9C,00002191
2016-08-30 06:37:00 r, 08.13m,0000047332Hz,0000000000c,0000000.000s, 019.6C,00002191
2016-08-30 06:47:00 r, 07.16m,0000115543Hz,0000000000c,0000000.000s, 019.6C,00002191
2016-08-30 06:57:01 r, 06.52m,0000208079Hz,0000000000c,0000000.000s, 019.6C,00002191
2016-08-30 07:07:01 r, 06.09m,0000309303Hz,0000000000c,0000000.000s, 019.9C,00002191
2016-08-30 07:17:00 r, 00.00m,0000405896Hz,0000000000c,0000000.000s, 020.9C,00002191
2016-08-30 07:27:00 r, 00.00m,0000495218Hz,0000000000c,0000000.000s, 021.9C,00002191
2016-08-30 07:37:00 r, 00.00m,0000576838Hz,0000000000c,0000000.000s, 022.8C,00002191
2016-08-30 07:47:00 r, 00.00m,0000595979Hz,0000000000c,0000000.000s, 024.1C,00002191
2016-08-30 07:57:01 r, 00.00m,0000595852Hz,0000000000c,0000000.000s, 025.1C,00002191
2016-08-30 08:07:00 r, 00.00m,0000595790Hz,0000000000c,0000000.000s, 026.1C,00002191
2016-08-30 08:17:01 r, 00.00m,0000595675Hz,0000000000c,0000000.000s, 027.0C,00002191
2016-08-30 08:27:00 r, 00.00m,0000595519Hz,0000000000c,0000000.000s, 028.0C,00002191
2016-08-30 08:37:01 r, 00.00m,0000595438Hz,0000000000c,0000000.000s, 029.0C,00002191
2016-08-30 08:47:02 r, 00.00m,0000595319Hz,0000000000c,0000000.000s, 029.9C,00002191
2016-08-30 08:57:00 r, 00.00m,0000595205Hz,0000000000c,0000000.000s, 030.9C,00002191
2016-08-30 09:07:00 r, 00.00m,0000595200Hz,0000000000c,0000000.000s, 032.2C,00002191
2016-08-30 09:17:01 r, 00.00m,0000595166Hz,0000000000c,0000000.000s, 033.1C,00002191
2016-08-30 09:27:01 r, 00.00m,0000594924Hz,0000000000c,0000000.000s, 034.1C,00002191
2016-08-30 09:37:01 r, 00.00m,0000594789Hz,0000000000c,0000000.000s, 035.4C,00002191
2016-08-30 09:47:00 r, 00.00m,0000594627Hz,0000000000c,0000000.000s, 037.0C,00002191
2016-08-30 09:57:00 r, 00.00m,0000594390Hz,0000000000c,0000000.000s, 038.3C,00002191
2016-08-30 10:07:00 r, 00.00m,0000594201Hz,0000000000c,0000000.000s, 039.3C,00002191
2016-08-30 10:17:00 r, 00.00m,0000594095Hz,0000000000c,0000000.000s, 040.6C,00002191
2016-08-30 10:27:01 r, 00.00m,0000594026Hz,0000000000c,0000000.000s, 041.5C,00002191
2016-08-30 10:37:01 r, 00.00m,0000593789Hz,0000000000c,0000000.000s, 042.5C,00002191
2016-08-30 10:47:00 r, 00.00m,0000593756Hz,0000000000c,0000000.000s, 043.1C,00002191
2016-08-30 10:57:00 r, 00.00m,0000593664Hz,0000000000c,0000000.000s, 044.1C,00002191
2016-08-30 11:07:01 r, 00.00m,0000593588Hz,0000000000c,0000000.000s, 044.8C,00002191
2016-08-30 11:17:01 r, 00.00m,0000593534Hz,0000000000c,0000000.000s, 045.4C,00002191
2016-08-30 11:27:00 r, 00.00m,0000593416Hz,0000000000c,0000000.000s, 045.7C,00002191
2016-08-30 11:37:01 r, 00.00m,0000593318Hz,0000000000c,0000000.000s, 046.0C,00002191
2016-08-30 11:47:01 r, 00.00m,0000593216Hz,0000000000c,0000000.000s, 046.4C,00002191
2016-08-30 11:57:01 r, 00.00m,0000593165Hz,0000000000c,0000000.000s, 046.7C,00002191
2016-08-30 12:07:01 r, 00.00m,0000593125Hz,0000000000c,0000000.000s, 047.0C,00002191
2016-08-30 12:17:00 r, 00.00m,0000593165Hz,0000000000c,0000000.000s, 047.0C,00002191
2016-08-30 12:27:00 r, 00.00m,0000593036Hz,0000000000c,0000000.000s, 047.0C,00002191
2016-08-30 12:37:01 r, 00.00m,0000593022Hz,0000000000c,0000000.000s, 047.3C,00002191
2016-08-30 12:47:01 r, 00.00m,0000592973Hz,0000000000c,0000000.000s, 047.7C,00002191
2016-08-30 12:57:01 r, 00.00m,0000592980Hz,0000000000c,0000000.000s, 048.0C,00002191
2016-08-30 13:07:01 r, 00.00m,0000592879Hz,0000000000c,0000000.000s, 048.3C,00002191
2016-08-30 13:17:00 r, 00.00m,0000592790Hz,0000000000c,0000000.000s, 048.6C,00002191
2016-08-30 13:27:01 r, 00.00m,0000592701Hz,0000000000c,0000000.000s, 048.9C,00002191
2016-08-30 13:37:01 r, 00.00m,0000592704Hz,0000000000c,0000000.000s, 049.3C,00002191
2016-08-30 13:47:01 r, 00.00m,0000592681Hz,0000000000c,0000000.000s, 049.6C,00002191
2016-08-30 13:57:01 r, 00.00m,0000592656Hz,0000000000c,0000000.000s, 049.6C,00002191
2016-08-30 14:07:00 r, 00.00m,0000592645Hz,0000000000c,0000000.000s, 049.6C,00002191
2016-08-30 14:17:01 r, 00.00m,0000592661Hz,0000000000c,0000000.000s, 049.3C,00002191
2016-08-30 14:27:01 r, 00.00m,0000592641Hz,0000000000c,0000000.000s, 049.6C,00002191
2016-08-30 14:37:00 r, 00.00m,0000592618Hz,0000000000c,0000000.000s, 049.9C,00002191
2016-08-30 14:47:01 r, 00.00m,0000592584Hz,0000000000c,0000000.000s, 049.9C,00002191
2016-08-30 14:57:01 r, 00.00m,0000592598Hz,0000000000c,0000000.000s, 049.9C,00002191
2016-08-30 15:07:01 r, 00.00m,0000592710Hz,0000000000c,0000000.000s, 049.9C,00002191
2016-08-30 15:17:01 r, 00.00m,0000592802Hz,0000000000c,0000000.000s, 049.3C,00002191
2016-08-30 15:27:01 r, 00.00m,0000592777Hz,0000000000c,0000000.000s, 049.3C,00002191
2016-08-30 15:37:01 r, 00.00m,0000592816Hz,0000000000c,0000000.000s, 048.6C,00002191
2016-08-30 15:47:01 r, 00.00m,0000592929Hz,0000000000c,0000000.000s, 048.6C,00002191
2016-08-30 15:57:01 r, 00.00m,0000592826Hz,0000000000c,0000000.000s, 048.3C,00002191
2016-08-30 16:07:01 r, 00.00m,0000592949Hz,0000000000c,0000000.000s, 048.0C,00002191
2016-08-30 16:17:02 r, 00.00m,0000592963Hz,0000000000c,0000000.000s, 047.7C,00002191
2016-08-30 16:27:01 r, 00.00m,0000593042Hz,0000000000c,0000000.000s, 047.0C,00002191
2016-08-30 16:37:01 r, 00.00m,0000593151Hz,0000000000c,0000000.000s, 046.4C,00002191
2016-08-30 16:47:01 r, 00.00m,0000593208Hz,0000000000c,0000000.000s, 046.0C,00002191
2016-08-30 16:57:01 r, 00.00m,0000593180Hz,0000000000c,0000000.000s, 045.7C,00002191
2016-08-30 17:07:01 r, 00.00m,0000593355Hz,0000000000c,0000000.000s, 044.8C,00002191
2016-08-30 17:17:01 r, 00.00m,0000593466Hz,0000000000c,0000000.000s, 044.1C,00002191
2016-08-30 17:27:01 r, 00.00m,0000593504Hz,0000000000c,0000000.000s, 044.1C,00002191
2016-08-30 17:37:01 r, 00.00m,0000593572Hz,0000000000c,0000000.000s, 043.5C,00002191
2016-08-30 17:47:01 r, 00.00m,0000593738Hz,0000000000c,0000000.000s, 042.2C,00002191
2016-08-30 17:57:01 r, 00.00m,0000593938Hz,0000000000c,0000000.000s, 041.2C,00002191
2016-08-30 18:07:01 r, 00.00m,0000594033Hz,0000000000c,0000000.000s, 040.6C,00002191
2016-08-30 18:17:01 r, 00.00m,0000594149Hz,0000000000c,0000000.000s, 039.6C,00002191
2016-08-30 18:27:01 r, 00.00m,0000594369Hz,0000000000c,0000000.000s, 038.0C,00002191
2016-08-30 18:37:01 r, 00.00m,0000594436Hz,0000000000c,0000000.000s, 037.3C,00002191
2016-08-30 18:47:01 r, 00.00m,0000594587Hz,0000000000c,0000000.000s, 036.7C,00002191
2016-08-30 18:57:01 r, 00.00m,0000594633Hz,0000000000c,0000000.000s, 036.4C,00002191
2016-08-30 19:07:01 r, 00.00m,0000594675Hz,0000000000c,0000000.000s, 036.0C,00002191
2016-08-30 19:17:01 r, 00.00m,0000502138Hz,0000000000c,0000000.000s, 034.8C,00002191
2016-08-30 19:27:01 r, 00.00m,0000430208Hz,0000000000c,0000000.000s, 033.8C,00002191
2016-08-30 19:37:01 r, 05.88m,0000376725Hz,0000000000c,0000000.000s, 032.8C,00002191
2016-08-30 19:47:01 r, 05.98m,0000343402Hz,0000000000c,0000000.000s, 031.5C,00002191
2016-08-30 19:57:01 r, 06.41m,0000230883Hz,0000000000c,0000000.000s, 030.9C,00002191
2016-08-30 20:07:01 r, 07.16m,0000114697Hz,0000000000c,0000000.000s, 029.9C,00002191
2016-08-30 20:17:01 r, 07.93m,0000056904Hz,0000000000c,0000000.000s, 029.3C,00002191
2016-08-30 20:27:01 r, 09.04m,0000020590Hz,0000000000c,0000000.000s, 028.3C,00002191
2016-08-30 20:37:01 r, 10.78m,0000004146Hz,0000000000c,0000000.000s, 027.7C,00002191
2016-08-30 20:47:01 r, 12.93m,0000000570Hz,0000000000c,0000000.000s, 027.3C,00002191
2016-08-30 20:57:01 r, 14.75m,0000000106Hz,0000004382c,0000000.010s, 027.0C,00002191
2016-08-30 21:07:01 r, 16.67m,0000000019Hz,0000025354c,0000000.055s, 026.4C,00002191
2016-08-30 21:17:01 r, 18.23m,0000000005Hz,0000107141c,0000000.233s, 026.1C,00002191
2016-08-30 21:27:01 r, 19.42m,0000000002Hz,0000319721c,0000000.694s, 025.7C,00002191
2016-08-30 21:37:01 r, 20.24m,0000000001Hz,0000682493c,0000001.481s, 025.4C,00002191
2016-08-30 21:47:01 r, 20.68m,0000000001Hz,0001008965c,0000002.190s, 025.1C,00002191
2016-08-30 21:57:01 r, 20.82m,0000000001Hz,0001151289c,0000002.498s, 024.8C,00002191
2016-08-30 22:07:01 r, 20.89m,0000000001Hz,0001217394c,0000002.642s, 024.4C,00002191
2016-08-30 22:17:01 r, 20.91m,0000000001Hz,0001237177c,0000002.685s, 024.1C,00002191
2016-08-30 22:27:01 r, 20.91m,0000000001Hz,0001242895c,0000002.697s, 023.8C,00002191
2016-08-30 22:37:01 r, 20.92m,0000000000Hz,0001249044c,0000002.711s, 023.5C,00002191
2016-08-30 22:47:01 r, 20.92m,0000000000Hz,0001248824c,0000002.710s, 023.5C,00002191
2016-08-30 22:57:01 r, 20.91m,0000000001Hz,0001242124c,0000002.696s, 023.2C,00002191
2016-08-30 23:07:01 r, 20.91m,0000000000Hz,0001242685c,0000002.697s, 022.8C,00002191
2016-08-30 23:17:01 r, 20.91m,0000000000Hz,0001243838c,0000002.699s, 022.8C,00002191
2016-08-30 23:27:01 r, 20.91m,0000000000Hz,0001244960c,0000002.702s, 022.8C,00002191
2016-08-30 23:37:01 r, 20.92m,0000000001Hz,0001245426c,0000002.703s, 022.8C,00002191
2016-08-30 23:47:01 r, 20.91m,0000000000Hz,0001242213c,0000002.696s, 022.8C,00002191
2016-08-30 23:57:01 r, 20.90m,0000000000Hz,0001231308c,0000002.672s, 022.8C,00002191
